Time,TemperatureF,DewpointF,PressureIn,WindDirection,WindDirectionDegrees,WindSpeedMPH,WindSpeedGustMPH,Humidity,HourlyPrecipIn,Conditions,Clouds,dailyrainin,SoftwareType,DateUTC
2013-05-24 00:02:00,62.9,63.0,29.77,SSW,210,2.0,7.0,99,0.00,,,0.00,weatherlink.com 1.10,2013-05-24 04:02:00,
2013-05-24 00:17:00,63.2,63.0,29.77,SSW,205,0.0,4.0,99,0.00,,,0.00,weatherlink.com 1.10,2013-05-24 04:17:00,
2013-05-24 00:32:00,63.5,63.0,29.76,SW,232,1.0,4.0,99,0.00,,,0.00,weatherlink.com 1.10,2013-05-24 04:32:00,
2013-05-24 00:47:00,63.8,64.0,29.75,SSW,210,2.0,4.0,99,0.00,,,0.00,weatherlink.com 1.10,2013-05-24 04:47:00,
2013-05-24 01:02:00,64.1,64.0,29.75,SSW,198,0.0,1.0,100,0.00,,,0.00,weatherlink.com 1.10,2013-05-24 05:02:00,
2013-05-24 01:17:00,64.3,64.0,29.74,SSW,193,0.0,1.0,99,0.00,,,0.00,weatherlink.com 1.10,2013-05-24 05:17:00,
2013-05-24 01:32:00,64.4,64.0,29.74,SW,221,0.0,1.0,99,0.00,,,0.00,weatherlink.com 1.10,2013-05-24 05:32:00,
2013-05-24 01:47:00,64.5,65.0,29.74,South,190,0.0,1.0,100,0.00,,,0.00,weatherlink.com 1.10,2013-05-24 05:47:00,
2013-05-24 02:02:00,64.6,65.0,29.74,South,190,0.0,0.0,100,0.00,,,0.00,weatherlink.com 1.10,2013-05-24 06:02:00,
2013-05-24 02:17:00,64.8,65.0,29.75,SSW,210,0.0,2.0,100,0.00,,,0.00,weatherlink.com 1.10,2013-05-24 06:17:00,
2013-05-24 02:32:00,65.0,65.0,29.75,SSW,208,0.0,1.0,100,0.09,,,0.09,weatherlink.com 1.10,2013-05-24 06:32:00,
2013-05-24 02:47:00,65.1,65.0,29.73,SSW,209,0.0,0.0,100,0.09,,,0.09,weatherlink.com 1.10,2013-05-24 06:47:00,
2013-05-24 03:02:00,65.1,65.0,29.74,SSW,205,2.0,2.0,100,0.10,,,0.10,weatherlink.com 1.10,2013-05-24 07:02:00,
2013-05-24 03:17:00,65.1,65.0,29.72,ENE,60,0.0,2.0,100,0.34,,,0.34,weatherlink.com 1.10,2013-05-24 07:17:00,
2013-05-24 03:32:00,64.9,65.0,29.72,ENE,78,0.0,0.0,100,0.26,,,0.35,weatherlink.com 1.10,2013-05-24 07:32:00,
2013-05-24 03:47:00,64.9,65.0,29.71,East,82,0.0,1.0,100,0.26,,,0.35,weatherlink.com 1.10,2013-05-24 07:47:00,
2013-05-24 04:02:00,64.7,65.0,29.72,SSW,197,0.0,1.0,100,0.25,,,0.35,weatherlink.com 1.10,2013-05-24 08:02:00,
2013-05-24 04:17:00,64.6,65.0,29.73,SSW,197,0.0,0.0,100,0.03,,,0.37,weatherlink.com 1.10,2013-05-24 08:17:00,
2013-05-24 04:32:00,64.4,64.0,29.72,SSW,198,0.0,0.0,100,0.02,,,0.37,weatherlink.com 1.10,2013-05-24 08:32:00,
2013-05-24 04:47:00,64.3,64.0,29.71,SSW,197,0.0,0.0,100,0.02,,,0.37,weatherlink.com 1.10,2013-05-24 08:47:00,
2013-05-24 05:02:00,64.4,64.0,29.71,SSW,197,0.0,0.0,100,0.01,,,0.37,weatherlink.com 1.10,2013-05-24 09:02:00,
2013-05-24 05:17:00,64.4,64.0,29.71,SSW,197,0.0,0.0,100,0.00,,,0.37,weatherlink.com 1.10,2013-05-24 09:17:00,
2013-05-24 05:32:00,64.4,64.0,29.72,SSW,197,0.0,0.0,100,0.00,,,0.37,weatherlink.com 1.10,2013-05-24 09:32:00,
2013-05-24 05:47:00,64.2,64.0,29.73,SSW,197,0.0,0.0,100,0.00,,,0.37,weatherlink.com 1.10,2013-05-24 09:47:00,
2013-05-24 06:02:00,64.1,64.0,29.73,SSW,197,0.0,0.0,100,0.00,,,0.37,weatherlink.com 1.10,2013-05-24 10:02:00,
2013-05-24 06:17:00,64.1,64.0,29.73,SSW,197,0.0,0.0,100,0.00,,,0.37,weatherlink.com 1.10,2013-05-24 10:17:00,
2013-05-24 06:32:00,64.0,64.0,29.73,SSW,197,0.0,0.0,100,0.01,,,0.38,weatherlink.com 1.10,2013-05-24 10:32:00,
2013-05-24 06:47:00,64.1,64.0,29.74,SSW,197,0.0,0.0,100,0.01,,,0.38,weatherlink.com 1.10,2013-05-24 10:47:00,
2013-05-24 07:02:00,64.3,64.0,29.75,SSW,197,0.0,0.0,100,0.01,,,0.38,weatherlink.com 1.10,2013-05-24 11:02:00,
2013-05-24 07:17:00,64.5,65.0,29.75,SSW,197,0.0,0.0,100,0.01,,,0.38,weatherlink.com 1.10,2013-05-24 11:17:00,
2013-05-24 07:32:00,64.7,65.0,29.75,SSW,198,0.0,0.0,100,0.00,,,0.38,weatherlink.com 1.10,2013-05-24 11:32:00,
2013-05-24 07:47:00,64.9,65.0,29.75,SSW,197,0.0,0.0,100,0.00,,,0.38,weatherlink.com 1.10,2013-05-24 11:47:00,
2013-05-24 08:02:00,65.4,65.0,29.75,SSW,197,0.0,0.0,100,0.00,,,0.38,weatherlink.com 1.10,2013-05-24 12:02:00,
2013-05-24 08:17:00,65.4,65.0,29.75,SSW,197,0.0,0.0,100,0.00,,,0.38,weatherlink.com 1.10,2013-05-24 12:17:00,
2013-05-24 08:32:00,66.2,66.0,29.76,SSW,197,0.0,0.0,100,0.00,,,0.38,weatherlink.com 1.10,2013-05-24 12:32:00,
2013-05-24 08:47:00,67.6,68.0,29.76,WSW,252,0.0,1.0,100,0.00,,,0.38,weatherlink.com 1.10,2013-05-24 12:47:00,
2013-05-24 09:02:00,67.9,68.0,29.76,SW,224,0.0,2.0,100,0.00,,,0.38,weatherlink.com 1.10,2013-05-24 13:02:00,
2013-05-24 09:17:00,67.0,67.0,29.75,SW,224,0.0,0.0,99,0.00,,,0.38,weatherlink.com 1.10,2013-05-24 13:17:00,
2013-05-24 09:32:00,66.4,66.0,29.76,SW,224,0.0,0.0,99,0.00,,,0.38,weatherlink.com 1.10,2013-05-24 13:32:00,
2013-05-24 09:47:00,66.7,67.0,29.76,SW,224,0.0,0.0,100,0.00,,,0.38,weatherlink.com 1.10,2013-05-24 13:47:00,
2013-05-24 10:02:00,66.7,67.0,29.76,SW,224,0.0,0.0,100,0.00,,,0.38,weatherlink.com 1.10,2013-05-24 14:02:00,
2013-05-24 10:18:00,66.6,66.0,29.76,SE,143,1.0,1.0,99,0.00,,,0.38,weatherlink.com 1.10,2013-05-24 14:18:00,
2013-05-24 10:33:00,66.3,66.0,29.77,SE,146,0.0,0.0,100,0.00,,,0.38,weatherlink.com 1.10,2013-05-24 14:33:00,
2013-05-24 10:48:00,66.4,66.0,29.76,SE,145,0.0,0.0,100,0.00,,,0.38,weatherlink.com 1.10,2013-05-24 14:48:00,
2013-05-24 11:03:00,66.4,66.0,29.76,SE,146,0.0,0.0,100,0.00,,,0.38,weatherlink.com 1.10,2013-05-24 15:03:00,
2013-05-24 11:18:00,65.8,66.0,29.76,WSW,256,0.0,1.0,99,0.01,,,0.39,weatherlink.com 1.10,2013-05-24 15:18:00,
2013-05-24 11:33:00,64.2,64.0,29.77,West,267,0.0,1.0,98,0.01,,,0.39,weatherlink.com 1.10,2013-05-24 15:33:00,
2013-05-24 11:48:00,62.9,63.0,29.78,WNW,291,0.0,1.0,99,0.01,,,0.39,weatherlink.com 1.10,2013-05-24 15:48:00,
2013-05-24 12:03:00,59.5,59.0,29.79,NW,322,1.0,2.0,97,0.01,,,0.39,weatherlink.com 1.10,2013-05-24 16:03:00,
2013-05-24 12:18:00,58.1,57.0,29.81,NNW,327,1.0,1.0,97,0.00,,,0.39,weatherlink.com 1.10,2013-05-24 16:18:00,
2013-05-24 12:33:00,57.4,57.0,29.81,West,281,0.0,1.0,97,0.00,,,0.39,weatherlink.com 1.10,2013-05-24 16:33:00,
2013-05-24 12:48:00,56.5,55.0,29.82,WNW,295,0.0,2.0,96,0.00,,,0.39,weatherlink.com 1.10,2013-05-24 16:48:00,
2013-05-24 13:03:00,56.3,55.0,29.83,West,266,0.0,2.0,94,0.00,,,0.39,weatherlink.com 1.10,2013-05-24 17:03:00,
2013-05-24 13:18:00,55.7,54.0,29.83,NW,316,0.0,1.0,93,0.00,,,0.39,weatherlink.com 1.10,2013-05-24 17:18:00,
2013-05-24 13:33:00,55.3,53.0,29.83,NW,312,0.0,1.0,93,0.00,,,0.39,weatherlink.com 1.10,2013-05-24 17:33:00,
2013-05-24 13:48:00,55.3,53.0,29.84,NW,308,0.0,1.0,93,0.00,,,0.39,weatherlink.com 1.10,2013-05-24 17:48:00,
2013-05-24 14:03:00,55.2,54.0,29.84,NW,324,0.0,1.0,94,0.00,,,0.39,weatherlink.com 1.10,2013-05-24 18:03:00,
2013-05-24 14:18:00,55.1,53.0,29.84,NW,322,0.0,1.0,92,0.00,,,0.39,weatherlink.com 1.10,2013-05-24 18:18:00,
2013-05-24 14:33:00,54.3,52.0,29.84,WNW,302,1.0,2.0,91,0.00,,,0.39,weatherlink.com 1.10,2013-05-24 18:33:00,
2013-05-24 14:48:00,53.7,51.0,29.84,NW,318,1.0,2.0,90,0.00,,,0.39,weatherlink.com 1.10,2013-05-24 18:48:00,
2013-05-24 15:03:00,53.5,51.0,29.85,West,280,0.0,1.0,92,0.00,,,0.39,weatherlink.com 1.10,2013-05-24 19:03:00,
2013-05-24 15:18:00,53.2,51.0,29.85,WNW,288,0.0,1.0,93,0.00,,,0.39,weatherlink.com 1.10,2013-05-24 19:18:00,
2013-05-24 15:33:00,52.6,51.0,29.86,WNW,285,0.0,2.0,94,0.01,,,0.40,weatherlink.com 1.10,2013-05-24 19:33:00,
2013-05-24 15:48:00,52.2,51.0,29.87,West,260,0.0,1.0,95,0.02,,,0.41,weatherlink.com 1.10,2013-05-24 19:48:00,
2013-05-24 16:03:00,51.7,51.0,29.88,WNW,298,0.0,1.0,96,0.04,,,0.43,weatherlink.com 1.10,2013-05-24 20:03:00,
2013-05-24 16:18:00,51.4,51.0,29.87,NW,305,0.0,1.0,97,0.05,,,0.44,weatherlink.com 1.10,2013-05-24 20:18:00,
2013-05-24 16:33:00,50.8,50.0,29.88,WNW,291,0.0,2.0,96,0.05,,,0.45,weatherlink.com 1.10,2013-05-24 20:33:00,
2013-05-24 16:49:00,50.6,50.0,29.89,West,269,0.0,1.0,97,0.04,,,0.45,weatherlink.com 1.10,2013-05-24 20:49:00,
2013-05-24 17:03:00,50.3,50.0,29.89,West,274,0.0,1.0,97,0.02,,,0.45,weatherlink.com 1.10,2013-05-24 21:03:00,
2013-05-24 17:19:00,50.8,50.0,29.90,West,278,0.0,1.0,97,0.01,,,0.45,weatherlink.com 1.10,2013-05-24 21:19:00,
2013-05-24 17:34:00,51.0,50.0,29.90,WNW,298,0.0,1.0,96,0.00,,,0.45,weatherlink.com 1.10,2013-05-24 21:34:00,
2013-05-24 17:49:00,51.1,50.0,29.91,WNW,298,0.0,1.0,96,0.00,,,0.45,weatherlink.com 1.10,2013-05-24 21:49:00,
2013-05-24 18:04:00,51.0,49.0,29.91,WSW,255,0.0,1.0,94,0.00,,,0.45,weatherlink.com 1.10,2013-05-24 22:04:00,
2013-05-24 18:19:00,51.3,50.0,29.91,West,276,0.0,1.0,94,0.00,,,0.45,weatherlink.com 1.10,2013-05-24 22:19:00,
2013-05-24 18:34:00,51.5,49.0,29.91,SSW,205,0.0,-999.0,92,-99.99,,,0.45,weatherlink.com 1.10,2013-05-24 22:34:00,
2013-05-24 18:49:00,51.5,49.0,29.91,WSW,240,0.0,1.0,91,0.00,,,0.45,weatherlink.com 1.10,2013-05-24 22:49:00,
2013-05-24 19:04:00,51.4,48.0,29.93,NW,325,0.0,1.0,89,0.00,,,0.45,weatherlink.com 1.10,2013-05-24 23:04:00,
2013-05-24 19:19:00,51.2,48.0,29.93,West,260,0.0,1.0,90,0.00,,,0.45,weatherlink.com 1.10,2013-05-24 23:19:00,
2013-05-24 19:34:00,51.0,48.0,29.93,West,280,0.0,1.0,89,0.00,,,0.45,weatherlink.com 1.10,2013-05-24 23:34:00,
2013-05-24 19:49:00,51.0,48.0,29.95,West,259,0.0,1.0,89,0.00,,,0.45,weatherlink.com 1.10,2013-05-24 23:49:00,
2013-05-24 20:04:00,50.9,47.0,29.94,NW,316,0.0,1.0,86,0.00,,,0.45,weatherlink.com 1.10,2013-05-25 00:04:00,
2013-05-24 20:19:00,51.1,47.0,29.95,West,264,0.0,1.0,86,0.00,,,0.45,weatherlink.com 1.10,2013-05-25 00:19:00,
2013-05-24 20:34:00,51.0,47.0,29.95,NW,314,0.0,1.0,85,0.00,,,0.45,weatherlink.com 1.10,2013-05-25 00:34:00,
2013-05-24 20:49:00,51.1,46.0,29.96,NNW,328,0.0,1.0,83,0.00,,,0.45,weatherlink.com 1.10,2013-05-25 00:49:00,
2013-05-24 21:04:00,51.0,45.0,29.96,NW,321,0.0,2.0,81,0.00,,,0.45,weatherlink.com 1.10,2013-05-25 01:04:00,
2013-05-24 21:19:00,51.0,45.0,29.97,WNW,295,0.0,2.0,81,0.00,,,0.45,weatherlink.com 1.10,2013-05-25 01:19:00,
2013-05-24 21:34:00,50.9,46.0,29.97,North,359,1.0,2.0,82,0.00,,,0.45,weatherlink.com 1.10,2013-05-25 01:34:00,
2013-05-24 21:49:00,50.9,45.0,29.98,NW,316,1.0,2.0,81,0.00,,,0.45,weatherlink.com 1.10,2013-05-25 01:49:00,
2013-05-24 22:04:00,50.7,45.0,29.99,NW,316,0.0,2.0,80,0.00,,,0.45,weatherlink.com 1.10,2013-05-25 02:04:00,
2013-05-24 22:19:00,50.4,44.0,29.99,West,259,0.0,1.0,80,0.00,,,0.45,weatherlink.com 1.10,2013-05-25 02:19:00,
2013-05-24 22:34:00,50.2,44.0,30.00,North,6,0.0,2.0,80,0.00,,,0.45,weatherlink.com 1.10,2013-05-25 02:34:00,
2013-05-24 22:49:00,49.8,44.0,30.00,WNW,288,0.0,2.0,80,0.00,,,0.45,weatherlink.com 1.10,2013-05-25 02:49:00,
2013-05-24 23:04:00,49.5,43.0,29.99,WNW,285,0.0,3.0,79,0.00,,,0.45,weatherlink.com 1.10,2013-05-25 03:04:00,
2013-05-24 23:19:00,48.8,43.0,30.00,WNW,283,0.0,3.0,80,0.00,,,0.45,weatherlink.com 1.10,2013-05-25 03:19:00,
2013-05-24 23:34:00,48.3,43.0,30.00,West,280,0.0,1.0,83,0.00,,,0.45,weatherlink.com 1.10,2013-05-25 03:34:00,
2013-05-24 23:49:00,47.7,43.0,29.99,West,280,0.0,2.0,83,0.00,,,0.45,weatherlink.com 1.10,2013-05-25 03:49:00,